Wind_Speed
27 27 28 28 30 30 29 29 28 27 28 26 26 25 21 17 11 8 11 10 11 20 26 25 25 27 31 31 31 33 34 35 34 33 37 41 43 44 45 47 50 52 52 49 46 44 40 40 41 42 40 38 38 36 30 26 25 27 28 30 35 39 39 39 38 37 36 34 34 35 35 35 36 35
27 27 28 28 29 30 29 29 29 29 29 28 28 27 26 25 19 11 9 10 12 17 22 25 25 24 28 29 28 30 32 33 33 32 35 40 42 42 43 44 45 49 51 49 46 45 42 39 39 41 42 41 39 39 36 31 26 25 25 24 27 33 37 38 38 36 35 35 35 35 35 36 36 36
26 27 28 28 28 29 28 28 28 28 29 28 28 28 27 28 28 22 14 9 14 22 21 21 24 20 20 26 28 30 31 33 34 34 35 38 40 41 42 43 43 45 49 49 46 44 42 40 38 39 41 42 41 40 39 37 33 29 26 23 23 26 30 34 36 37 37 36 35 35 35 36 36 36
26 27 28 28 28 27 27 27 27 27 28 28 28 28 28 29 30 29 22 11 13 24 26 23 26 24 20 20 23 27 31 32 34 35 36 37 37 38 40 42 43 43 45 49 48 44 41 40 40 39 39 41 42 41 40 40 39 36 33 29 25 24 26 29 32 36 38 37 36 34 34 34 35 35
25 25 26 27 27 28 28 28 27 27 27 28 28 29 28 29 31 30 25 14 10 21 26 24 26 29 27 24 23 24 27 31 33 33 35 36 35 36 38 40 42 43 43 45 47 45 41 37 38 39 39 38 40 42 42 41 41 40 39 36 31 27 26 27 29 32 35 37 37 36 36 35 35 35
25 25 26 27 27 29 30 31 31 29 29 28 27 28 27 29 33 32 27 19 12 16 22 22 23 26 26 26 28 27 25 28 31 32 32 33 33 34 36 38 39 41 42 43 43 44 42 37 35 36 37 36 36 38 40 41 41 40 40 38 36 34 31 30 29 29 31 34 36 37 37 37 36 36
24 24 24 24 25 26 28 30 30 30 31 29 28 30 31 32 33 33 28 23 18 18 20 22 22 21 22 25 27 27 25 23 26 30 31 31 30 31 33 36 38 39 39 40 39 39 40 39 35 34 34 34 33 33 34 37 38 38 38 38 38 37 36 33 32 31 31 32 34 36 37 38 38 37
22 22 22 22 23 24 26 26 26 28 29 28 30 34 33 32 31 30 28 27 27 24 20 21 22 21 22 25 24 24 22 19 20 24 27 27 27 27 28 31 36 37 37 38 37 36 37 39 36 33 34 33 32 31 31 32 34 36 36 36 37 37 37 37 35 34 33 32 32 33 34 36 38 39
23 23 22 23 24 23 24 24 25 27 27 26 30 32 29 27 27 27 29 30 30 28 22 20 21 21 21 20 20 20 18 16 16 18 21 23 24 24 25 26 29 33 35 35 34 34 36 39 37 33 33 34 34 32 30 29 30 33 35 35 35 35 36 36 37 36 35 34 33 33 33 33 35 38
25 24 24 25 25 24 24 24 25 26 26 26 28 26 24 23 23 26 29 29 29 29 24 20 19 20 20 17 13 14 15 15 15 15 16 18 19 21 23 23 24 27 29 31 32 33 35 38 40 36 32 33 34 34 34 32 30 31 33 33 34 34 34 34 35 36 35 34 33 33 33 33 33 34
25 26 26 26 26 25 26 27 27 27 26 25 24 24 23 21 22 25 24 24 28 27 21 17 15 15 17 15 11 11 13 14 14 13 14 13 13 17 20 21 23 23 24 26 27 29 30 34 40 39 33 30 32 33 34 35 34 32 32 32 32 32 33 33 33 33 34 33 33 32 32 32 33 33
25 26 27 28 28 27 28 28 28 28 26 24 21 22 22 20 21 23 22 22 26 23 16 13 10 9 11 11 10 10 11 11 11 12 14 13 12 13 14 17 21 22 22 22 22 24 27 30 36 39 36 32 31 32 32 33 35 35 33 33 33 32 32 32 33 32 32 32 32 32 31 31 31 32
26 27 28 29 30 30 31 30 29 28 27 25 21 19 19 19 22 24 22 19 17 14 12 11 9 9 9 10 10 11 12 13 13 12 13 12 11 12 11 11 15 19 21 20 20 21 24 26 31 36 37 35 32 31 31 32 34 35 34 33 32 32 32 32 32 32 33 32 31 31 31 30 30 31
25 26 27 30 31 31 31 30 30 29 28 27 25 22 20 20 21 21 17 12 10 9 8 9 9 8 8 10 12 11 12 14 15 13 12 11 12 13 11 8 9 14 19 19 17 18 21 23 24 28 35 37 35 32 31 32 33 33 33 32 31 31 31 31 32 32 32 32 31 31 30 29 29 30
24 25 26 27 28 29 31 30 29 28 26 26 27 26 25 23 22 21 16 10 10 10 8 9 10 8 7 10 11 10 10 13 14 15 13 13 13 12 8 6 6 12 17 17 15 15 18 21 21 21 26 33 36 36 33 32 33 33 33 33 32 31 31 31 31 31 31 32 31 31 30 29 29 30
23 23 23 21 21 22 26 27 24 22 23 24 26 26 26 24 22 22 19 16 13 11 9 8 8 8 6 8 11 11 12 12 13 14 14 15 17 13 7 5 7 13 16 15 13 13 15 21 21 19 21 25 30 34 34 31 31 31 32 33 34 34 33 32 31 30 30 31 32 32 31 30 30 30
21 20 19 18 18 17 15 18 18 19 20 21 22 23 24 23 22 21 21 20 18 14 12 9 8 8 7 7 10 13 14 14 13 13 12 13 15 13 8 5 8 15 18 16 13 12 13 19 20 17 18 20 23 27 31 31 31 29 29 31 32 34 35 34 33 31 30 30 31 32 32 31 31 31
21 20 18 17 18 18 12 10 12 15 18 18 18 18 19 21 21 21 20 21 21 19 15 12 11 10 8 7 7 10 14 15 14 13 11 11 12 10 7 6 7 13 18 18 13 9 10 17 19 17 16 17 19 21 24 28 30 29 27 28 29 30 30 31 32 32 32 31 32 32 32 31 31 32
20 20 19 18 18 18 15 10 9 11 13 15 16 16 17 19 19 20 20 20 21 22 20 18 16 13 10 9 7 7 11 12 11 11 10 11 11 11 8 7 7 11 17 17 11 6 9 15 17 15 14 15 16 18 19 21 25 28 27 26 27 27 26 27 27 28 29 30 32 33 33 33 32 32
19 19 20 19 18 16 15 13 11 12 12 12 13 14 16 17 18 20 21 21 21 22 22 21 19 17 13 10 10 9 10 11 10 9 9 10 12 11 8 7 9 11 15 17 12 7 8 14 14 12 12 13 14 16 18 19 20 24 26 25 25 25 25 25 25 25 26 27 28 29 31 33 33 33
18 19 19 19 18 16 15 13 13 13 13 12 13 14 14 15 16 17 18 19 21 21 21 21 19 18 16 13 13 12 10 11 11 9 9 11 11 9 5 5 8 10 13 18 15 8 8 13 13 11 10 10 10 11 14 16 18 19 20 21 22 23 24 24 24 24 25 26 28 27 28 29 30 31
18 18 18 18 18 18 17 15 14 14 14 13 12 13 14 14 14 14 14 16 18 19 20 20 18 17 17 15 14 13 12 12 13 12 10 10 10 9 7 5 7 9 12 18 17 9 8 13 14 13 11 7 6 8 9 11 14 16 17 17 17 19 20 21 23 25 24 24 25 26 27 28 28 29
18 18 17 17 18 19 19 18 17 16 15 15 14 12 12 13 13 13 12 13 15 16 18 20 20 19 18 16 15 15 13 12 14 14 12 10 9 9 8 7 6 6 8 15 18 12 9 15 16 14 11 5 3 8 8 8 10 13 17 18 15 15 15 15 18 23 23 21 20 21 24 28 29 29
15 16 16 17 17 18 19 19 19 18 18 18 17 15 13 13 12 11 11 12 14 14 15 18 20 19 18 18 17 17 15 14 14 15 14 12 10 9 8 8 7 5 5 12 19 15 11 15 17 14 10 5 4 8 9 8 9 10 14 18 17 15 15 14 15 19 22 21 19 17 19 24 28 31
14 14 14 15 15 15 16 17 18 19 20 21 21 20 18 17 15 12 12 12 13 14 14 14 15 17 17 18 18 17 16 16 16 16 16 15 13 11 11 10 9 8 6 9 17 18 13 14 16 15 10 6 9 12 10 8 10 11 11 14 14 14 15 16 16 17 19 21 21 19 17 20 25 30
13 13 13 14 13 13 14 15 16 17 19 20 22 22 22 21 18 16 15 14 12 12 12 12 13 14 15 16 17 16 16 17 17 17 17 17 16 14 14 11 8 8 7 8 15 20 16 14 16 16 11 7 10 14 12 8 8 11 13 13 12 10 11 15 17 18 19 20 21 21 19 17 20 26
12 13 13 13 13 13 14 15 16 17 18 19 20 22 22 22 22 20 18 17 15 13 12 11 12 13 14 15 15 15 16 16 17 18 18 18 18 17 16 14 10 8 6 7 13 19 17 14 16 18 15 11 11 11 10 9 8 12 15 15 15 13 11 12 15 18 19 19 21 23 22 20 18 19
12 13 13 14 15 16 16 17 17 17 17 18 18 19 20 21 23 23 20 18 18 16 13 12 12 12 13 14 14 15 17 17 17 18 19 19 19 17 16 17 14 9 6 5 10 16 16 13 15 18 17 14 12 10 9 10 12 14 15 15 16 17 15 13 12 14 17 19 21 23 25 25 23 20
12 13 15 16 17 17 18 17 17 18 18 18 18 18 18 19 21 22 22 20 19 17 15 13 12 12 13 14 15 15 16 16 17 18 18 18 17 17 17 18 17 13 9 7 8 14 16 12 14 17 16 13 11 11 11 12 12 14 15 15 15 18 19 18 15 14 14 16 18 20 23 26 28 26
13 13 13 14 14 14 14 13 13 14 14 13 13 14 15 16 16 17 20 20 19 17 17 15 14 13 13 14 15 15 15 16 17 18 18 17 17 17 17 17 16 15 14 11 10 14 16 14 13 15 16 13 9 8 10 12 12 13 15 15 13 13 17 21 20 18 15 14 15 16 19 23 27 29
15 13 11 11 10 9 7 6 7 8 8 7 9 10 12 14 15 16 18 20 19 17 17 16 15 14 14 14 13 14 15 15 16 17 19 18 17 18 17 15 14 14 14 14 13 14 16 16 15 13 14 14 11 9 8 9 11 12 14 16 14 10 12 18 22 21 20 17 16 16 16 19 25 28
14 12 11 10 10 9 6 5 4 5 5 6 7 8 10 13 16 17 16 18 19 18 17 16 15 14 14 13 13 13 14 12 13 15 18 17 16 17 16 13 11 12 12 12 13 14 14 16 16 13 13 14 13 12 10 9 9 11 12 15 16 11 9 13 18 20 21 19 18 19 19 20 24 27
11 10 10 11 12 12 10 8 8 7 7 7 6 7 9 8 11 16 14 15 18 18 17 17 15 14 14 14 14 13 12 12 12 13 15 16 14 15 14 11 11 13 13 12 13 14 14 14 14 13 12 13 13 12 12 11 10 10 10 12 15 14 11 12 15 17 18 20 20 20 20 21 22 25
10 10 11 12 12 12 10 9 9 9 8 8 7 7 9 7 3 10 12 13 16 16 15 14 15 14 13 13 14 13 12 13 12 12 14 16 16 15 13 11 10 12 13 13 14 14 14 14 13 12 12 13 13 13 13 13 12 12 11 12 14 15 14 15 16 16 17 19 20 19 19 20 21 22
11 11 11 11 12 12 11 10 10 9 8 8 8 7 8 9 8 5 6 8 12 15 14 13 14 14 12 12 13 12 12 14 14 12 13 16 17 15 13 11 10 11 12 13 14 15 14 14 14 12 9 9 9 11 15 16 15 13 12 12 14 15 15 16 18 19 19 19 19 19 19 19 21 23
11 11 11 11 12 12 11 11 10 10 9 9 10 9 9 10 10 9 8 7 9 12 12 10 11 11 12 13 13 12 13 15 13 11 11 12 14 13 12 11 10 10 11 12 14 15 15 15 15 13 7 4 4 5 11 18 20 18 15 14 15 16 17 17 18 20 21 21 21 21 20 20 21 23
11 11 12 12 12 12 12 13 15 15 15 14 14 13 11 10 9 8 7 8 10 11 10 10 9 9 11 13 13 12 13 13 11 11 10 9 9 9 10 9 9 9 9 10 12 15 15 16 17 14 8 4 3 4 6 12 18 21 21 20 18 18 19 19 19 20 22 23 24 24 24 23 22 21
11 12 12 12 12 13 13 15 19 21 20 19 19 17 15 14 13 10 8 8 9 10 10 10 10 10 10 12 12 12 12 10 9 10 10 8 7 7 7 8 9 9 9 10 11 13 15 15 16 16 11 5 3 4 5 7 12 19 24 25 23 20 19 20 21 21 22 23 25 26 26 25 24 23
12 12 12 12 13 13 13 15 17 19 20 21 20 19 18 17 17 15 13 12 10 9 9 9 9 8 9 9 9 10 10 9 8 9 10 9 8 7 7 8 9 9 10 10 10 12 14 15 15 16 15 10 6 5 5 5 8 14 18 21 23 23 22 22 22 21 22 23 24 24 25 25 25 25
11 12 12 12 13 13 13 13 14 15 17 18 18 18 18 18 18 18 17 16 14 12 11 10 9 8 8 7 7 7 8 7 7 8 8 7 7 6 6 7 8 9 9 9 9 11 13 15 16 16 16 15 12 9 8 7 8 11 13 15 18 22 24 25 24 23 22 23 22 22 22 22 23 24
11 11 12 13 14 14 14 13 13 13 14 14 15 15 16 16 16 16 15 15 14 14 14 13 11 10 10 9 8 7 8 7 7 7 7 7 6 6 6 6 7 8 8 6 6 9 12 13 15 15 15 16 15 12 9 7 8 11 13 14 16 18 20 23 24 24 23 21 20 20 20 20 21 22
11 10 11 12 13 14 14 14 13 13 13 13 13 13 12 13 13 13 13 13 13 13 12 12 11 11 10 9 8 7 7 7 7 7 7 7 6 6 6 6 5 6 6 4 4 7 9 10 11 11 13 15 14 9 6 7 8 10 10 11 13 15 16 18 21 23 22 20 19 19 18 15 13 13
11 10 11 12 12 13 13 13 13 12 11 11 12 12 11 11 11 12 12 11 11 10 10 10 9 9 9 8 7 7 7 6 6 6 6 5 4 4 4 4 4 5 5 4 4 5 6 7 8 8 10 11 11 9 8 9 10 10 9 9 9 11 14 15 17 19 21 22 23 24 23 20 15 13
11 10 11 12 12 13 13 12 13 13 11 10 10 10 10 10 10 11 10 10 9 8 8 8 7 7 7 7 7 6 6 6 6 6 6 5 4 4 3 3 3 3 4 4 4 4 5 5 5 6 7 8 9 10 10 9 9 10 10 9 9 10 12 14 16 18 20 23 25 27 29 30 30 29
11 10 11 11 11 12 12 11 11 12 11 9 9 9 9 9 9 8 8 8 8 7 6 5 5 4 4 5 6 6 6 6 6 5 5 4 4 4 4 3 3 3 3 4 4 4 4 4 4 5 6 6 7 9 10 10 11 11 12 12 13 13 13 15 17 19 22 26 29 29 29 31 33 34
Wind_Direction
256 256 255 254 252 252 253 253 251 253 255 261 267 266 265 264 261 257 254 253 250 245 246 252 247 232 229 232 233 232 234 236 239 242 241 238 234 230 228 228 228 228 230 231 231 233 235 237 235 232 232 234 235 236 236 228 220 217 217 215 215 216 217 215 214 213 212 211 212 211 210 208 207 208
256 255 254 253 252 250 251 251 250 250 251 254 258 259 259 258 256 257 258 255 260 257 248 247 249 235 225 228 230 230 231 233 232 233 237 239 239 236 232 230 229 229 230 230 230 231 231 234 235 233 232 232 234 234 234 232 225 217 212 206 207 213 216 216 217 215 213 213 214 213 213 212 210 209
256 254 253 253 253 252 250 250 249 247 247 250 253 254 254 253 252 253 257 259 260 264 262 258 260 255 235 228 229 231 231 231 230 229 235 242 243 239 235 233 232 231 230 230 229 229 230 230 232 233 233 231 232 233 233 233 231 227 222 211 202 206 212 214 216 215 212 212 213 214 215 215 215 215
253 251 251 251 251 251 251 250 248 248 249 250 250 252 252 251 251 251 251 253 255 256 260 264 268 274 271 251 236 231 230 231 230 228 234 244 244 237 234 233 233 232 232 232 230 227 226 228 228 229 231 231 230 230 231 232 233 233 233 228 218 213 213 213 215 217 216 214 212 213 215 215 215 217
253 254 255 255 254 254 252 251 251 250 251 251 250 251 251 251 251 250 247 247 252 253 252 256 261 266 272 273 262 246 236 232 228 225 229 236 237 235 233 232 233 233 232 232 231 227 223 224 227 227 228 229 230 230 230 231 233 234 235 236 235 231 226 220 217 218 220 219 217 216 216 215 214 216
257 258 258 258 257 256 254 253 252 252 252 252 252 251 252 255 253 248 246 246 251 254 249 251 257 259 262 269 269 258 243 233 227 223 225 227 229 233 234 231 231 232 232 232 232 229 223 220 223 226 226 227 228 229 229 230 231 232 233 234 234 236 235 231 226 222 221 221 220 219 218 217 217 217
261 260 261 262 262 259 257 255 252 250 250 250 252 254 255 256 252 247 245 246 249 252 252 253 256 258 261 265 263 252 240 233 228 224 224 225 225 229 231 230 231 232 232 231 231 229 222 218 219 221 221 222 223 224 225 227 227 228 229 229 230 232 235 236 234 230 227 225 223 222 221 221 220 218
268 266 266 269 270 267 264 261 257 254 250 248 253 255 251 246 246 247 248 249 249 247 248 251 252 258 265 263 254 243 233 227 224 222 222 224 223 224 227 228 230 232 232 231 230 226 220 216 217 218 217 217 219 219 219 221 223 223 223 225 227 228 230 233 235 234 233 231 228 225 224 222 221 220
269 269 269 269 269 268 266 264 262 260 256 256 257 253 245 241 245 250 252 252 251 247 243 245 250 256 261 256 244 235 228 219 214 214 219 222 221 221 224 227 228 228 228 229 228 226 220 215 214 217 217 215 215 216 214 213 216 218 219 221 223 225 226 228 231 233 233 233 232 230 228 225 223 222
266 267 267 265 263 263 264 264 264 264 262 262 259 252 247 249 252 252 249 246 246 244 240 240 246 247 243 238 228 222 221 216 207 202 209 218 219 218 219 222 224 225 225 226 227 227 224 219 215 215 217 216 215 215 213 210 209 211 214 217 220 222 223 224 227 230 231 232 232 232 232 230 227 225
262 261 260 261 261 260 260 261 263 265 265 263 260 259 257 255 256 255 250 246 245 240 234 233 236 233 228 224 213 207 211 214 206 193 194 202 207 211 213 214 215 218 219 222 225 227 227 223 218 215 213 214 215 215 215 213 211 209 210 213 216 219 222 223 223 225 228 229 231 231 232 231 230 230
258 258 257 257 257 256 256 257 258 260 262 260 259 262 261 257 262 264 260 254 245 231 221 220 209 197 206 206 196 192 191 196 200 192 187 191 197 203 208 209 208 209 209 210 214 217 219 219 218 215 211 209 212 215 215 214 215 214 212 212 213 216 220 222 223 223 224 226 228 229 230 229 229 231
258 257 255 255 257 257 254 254 254 254 256 257 256 258 259 260 265 265 261 254 239 218 214 216 190 174 193 194 181 181 188 196 201 195 186 185 190 190 189 195 201 201 198 197 199 204 207 208 210 213 212 208 208 212 212 212 213 215 215 213 213 214 217 220 222 224 224 225 225 227 228 227 226 228
262 260 258 257 260 259 256 253 253 252 252 252 253 254 256 260 266 268 264 252 237 226 222 220 203 185 190 194 187 185 196 203 198 185 176 173 174 172 166 166 185 191 188 186 187 195 199 197 197 204 209 209 208 210 212 212 213 214 214 215 215 215 216 218 220 221 223 225 225 226 227 227 226 226
266 265 262 261 262 259 253 252 253 251 248 249 250 250 253 258 263 270 275 269 254 246 236 226 219 211 200 196 193 189 193 198 191 180 170 163 163 166 165 161 173 183 182 176 174 181 191 193 190 195 203 206 209 211 212 214 215 216 215 216 216 216 216 218 220 220 221 223 224 225 226 227 226 226
269 274 274 275 280 269 249 242 245 244 243 246 247 246 251 255 257 261 265 268 267 263 263 254 235 235 227 197 191 195 192 188 187 181 170 163 167 175 181 171 172 180 178 169 160 165 183 192 191 194 201 204 208 211 213 214 216 217 218 219 220 220 219 220 221 222 222 223 224 225 226 227 227 227
273 282 287 288 300 297 256 233 236 239 238 242 243 244 249 253 254 255 256 257 259 262 271 276 264 259 253 216 201 204 198 187 179 176 171 167 170 175 178 177 179 179 176 167 154 153 175 188 189 191 201 206 208 210 212 215 216 216 218 220 223 225 225 225 225 226 226 226 227 227 227 228 229 229
273 279 285 286 296 305 291 248 237 240 239 238 238 240 244 247 249 252 252 252 252 253 255 260 262 263 265 261 235 210 200 194 183 177 175 170 166 165 168 181 186 183 180 173 155 144 171 185 186 189 198 206 209 209 211 213 215 214 214 217 220 223 226 226 227 228 228 229 231 230 229 228 230 231
269 273 278 280 284 291 292 280 261 255 249 241 237 237 239 242 244 246 247 246 245 246 246 247 249 249 255 268 262 215 195 194 191 183 177 169 159 150 143 146 157 175 185 181 164 147 173 183 186 189 199 207 210 212 213 213 215 214 212 215 217 219 222 224 226 228 228 230 232 232 232 230 228 230
265 267 270 273 275 278 282 280 275 272 265 252 244 242 241 242 243 243 245 244 243 243 244 245 245 243 240 245 252 232 194 184 181 170 162 163 159 149 134 134 150 167 184 186 175 150 163 180 184 183 193 207 211 215 218 217 217 218 216 217 219 219 222 225 226 227 226 228 230 229 227 227 225 227
263 263 265 267 269 271 272 273 272 269 265 256 250 248 245 243 244 246 246 246 247 247 245 243 241 239 233 229 236 236 216 199 189 171 162 167 167 162 156 155 158 167 184 187 180 163 160 174 177 168 170 191 200 208 220 221 219 218 216 216 219 222 225 227 227 228 227 227 228 227 224 222 220 221
258 258 259 260 261 264 265 265 265 264 261 257 253 253 251 242 240 244 244 243 246 246 243 240 236 234 231 226 225 226 223 216 207 199 189 181 180 185 192 189 165 165 188 191 184 181 171 166 167 160 150 157 179 186 206 221 218 213 208 209 215 221 226 230 228 228 228 224 223 226 226 222 218 218
253 254 256 256 255 257 258 257 256 255 254 253 254 258 262 252 241 239 239 241 243 242 237 235 232 230 228 225 221 220 221 220 217 216 210 197 196 198 195 197 183 169 190 192 186 185 171 162 166 164 147 131 181 183 186 200 207 208 204 202 206 212 217 224 227 227 228 223 216 218 222 220 215 214
258 258 259 258 255 255 255 254 254 252 249 249 248 250 254 255 251 246 241 242 245 243 237 232 229 227 226 225 223 222 222 219 218 222 219 207 204 201 190 197 207 202 194 188 188 188 168 158 167 171 161 149 159 171 182 186 185 196 202 202 206 209 209 214 221 223 225 226 221 215 216 217 214 213
270 266 264 263 261 258 254 251 252 252 250 248 246 244 244 246 250 251 246 245 246 245 242 237 227 222 223 222 220 218 218 216 215 220 220 214 207 199 188 191 206 211 205 194 193 191 171 157 166 175 180 173 150 154 166 175 182 190 192 197 207 210 209 213 219 223 225 226 226 220 213 214 214 215
285 280 275 271 268 266 262 258 256 256 253 249 245 244 244 244 243 243 241 240 241 239 239 238 231 224 218 214 212 209 209 212 213 215 218 216 211 202 192 190 201 211 211 203 197 192 180 168 170 175 180 165 141 145 151 153 181 195 187 186 196 203 209 214 216 222 225 226 228 225 216 212 214 216
292 287 284 281 279 277 274 271 270 267 263 257 250 245 244 242 239 236 233 233 232 230 230 230 229 225 218 212 210 207 205 209 211 212 214 215 214 209 202 202 213 228 225 205 196 195 189 180 179 181 179 163 142 142 152 155 175 193 192 191 193 194 204 215 218 221 223 224 228 228 223 220 218 216
294 290 288 288 286 284 281 276 274 272 270 266 260 252 247 244 239 234 230 229 226 222 222 223 223 222 218 214 211 209 210 212 210 208 210 211 211 210 209 212 220 230 225 191 187 195 192 182 184 189 186 175 164 159 159 157 168 187 193 194 197 198 198 203 213 219 220 223 228 230 229 229 227 223
301 296 293 292 289 286 282 276 271 269 267 266 264 258 251 247 241 234 228 226 223 218 215 215 216 217 217 217 217 215 215 213 206 202 201 198 199 203 207 214 222 225 216 192 183 193 193 186 188 193 189 183 178 172 165 158 165 184 192 193 205 212 208 203 205 208 213 222 227 228 230 232 232 232
313 309 304 301 296 289 281 272 269 269 266 264 263 258 250 244 238 229 223 221 220 217 211 207 210 213 213 216 217 213 211 204 194 191 188 182 185 195 199 204 212 217 216 212 201 196 196 196 200 198 192 188 183 169 162 159 161 177 190 192 198 211 215 214 213 211 211 215 217 221 228 231 230 232
328 329 320 316 318 313 296 278 274 276 277 275 264 254 252 247 234 224 220 218 215 214 209 203 205 209 210 211 207 200 202 197 182 180 183 179 181 191 193 192 197 203 208 210 205 200 199 203 210 210 200 195 192 177 163 161 162 172 189 193 188 193 216 219 217 217 218 216 214 219 227 230 229 229
337 344 340 344 1 8 6 0 336 315 314 304 281 272 280 264 234 217 215 213 210 211 207 201 201 200 200 202 197 191 193 185 165 167 178 178 179 185 185 179 181 186 190 193 196 197 199 203 211 214 207 204 204 195 183 179 178 179 191 199 198 200 215 216 214 217 217 214 216 220 225 231 233 233
345 356 0 8 14 11 7 6 359 351 344 329 310 312 319 288 219 199 200 205 206 207 203 196 193 191 191 192 189 181 174 166 160 168 175 173 171 177 180 179 179 181 182 184 189 192 195 200 207 210 206 205 208 207 200 198 202 202 199 201 205 207 210 214 219 219 213 209 214 220 225 231 235 235
5 10 14 16 14 8 6 5 358 351 348 344 338 337 344 354 162 181 192 201 202 199 194 187 184 185 186 185 181 174 162 158 165 177 179 176 172 170 175 181 181 181 182 184 189 193 196 199 203 208 213 213 216 219 216 210 212 215 210 206 211 212 211 216 224 226 221 218 217 218 223 230 233 233
21 22 22 20 14 9 9 7 359 350 348 354 1 4 10 28 56 106 154 176 182 181 179 177 177 177 174 169 169 168 155 147 153 166 176 180 179 174 174 177 174 170 172 178 187 195 198 199 197 196 205 217 225 235 233 225 220 218 213 213 217 217 215 221 227 229 228 225 221 219 222 229 233 235
28 27 24 20 14 11 10 9 5 3 2 8 18 26 29 37 51 65 75 98 137 157 160 159 162 164 161 157 159 161 153 145 147 154 163 172 178 177 181 185 180 171 169 177 191 197 197 197 193 185 180 197 216 239 241 234 229 224 218 217 223 224 220 222 227 229 227 225 221 219 221 226 232 237
23 23 23 22 19 16 15 17 22 28 30 31 36 41 40 43 52 63 77 96 117 133 139 142 143 147 151 152 151 152 154 154 155 159 162 167 172 173 178 183 178 169 166 175 192 198 196 194 193 188 181 186 199 215 235 234 232 230 226 223 226 230 227 223 223 226 228 228 226 224 226 229 233 237
18 16 17 18 19 18 18 23 30 36 39 41 44 46 47 51 59 71 90 107 116 126 136 141 140 139 143 145 143 143 149 153 155 161 168 171 169 169 172 170 167 168 170 174 185 194 195 196 196 196 196 196 206 222 227 223 228 234 235 230 228 230 229 225 224 228 230 232 233 233 233 237 238 239
17 15 12 9 10 12 13 18 25 32 37 41 43 43 46 51 56 64 75 85 95 110 122 128 131 133 136 141 143 147 152 155 157 164 172 176 177 176 175 172 173 178 181 183 189 196 199 200 202 204 207 211 218 227 227 223 231 241 243 237 230 229 230 230 230 232 234 236 239 240 239 241 244 244
13 17 17 11 9 12 13 12 15 24 32 37 41 42 46 51 54 57 62 68 74 83 93 99 106 114 117 121 134 143 143 143 148 156 161 166 169 168 171 178 186 188 185 184 194 206 211 213 214 215 216 221 229 240 249 254 253 249 247 242 234 230 234 238 238 236 237 240 241 240 239 241 244 246
6 12 18 17 14 16 19 16 15 19 25 31 36 38 40 43 47 50 54 59 64 69 76 80 85 92 95 98 106 117 119 120 128 137 137 133 137 153 165 172 182 189 187 181 195 218 230 234 234 233 232 232 237 246 255 259 257 252 251 252 249 243 241 245 245 242 242 242 238 236 237 241 245 249
5 4 9 15 15 17 21 22 20 20 20 21 26 30 31 34 40 44 45 48 54 59 62 65 70 76 80 81 87 95 102 108 117 126 129 125 128 149 164 164 167 183 188 181 194 221 237 246 247 243 239 236 235 238 242 243 249 256 257 256 255 250 245 245 245 244 243 240 235 232 234 236 239 245
13 8 6 11 15 17 22 25 25 24 21 17 18 22 27 34 43 47 47 46 49 54 56 56 60 68 73 74 78 85 92 99 110 120 126 127 124 134 151 158 161 174 183 176 177 199 221 240 247 242 235 232 227 226 238 251 256 261 262 258 252 249 248 248 248 249 249 246 243 242 241 238 235 238
16 14 10 11 14 16 18 21 23 24 23 21 20 20 22 28 35 41 49 57 60 61 62 61 62 67 72 75 80 88 94 98 106 114 118 119 122 125 131 144 153 163 174 172 168 187 218 241 247 234 224 224 223 224 237 251 256 256 258 259 256 255 257 258 259 259 259 257 256 255 253 250 248 251
14 17 14 12 12 12 11 14 17 19 20 25 28 26 24 28 30 29 36 49 57 59 63 71 76 75 74 76 80 90 100 102 105 113 117 116 120 124 126 136 148 161 178 179 172 184 213 228 231 224 216 213 217 223 231 241 249 254 258 260 261 263 265 267 268 267 266 266 267 266 265 261 259 259
Height
772 771 771 770 768 767 767 766 766 765 764 763 763 762 761 761 759 757 754 751 748 748 749 746 744 744 745 745 745 746 746 748 750 751 752 751 751 752 755 757 761 764 767 771 775 779 782 784 786 788 791 794 796 799 802 803 804 805 807 810 812 815 817 819 822 825 827 830 832 835 838 840 842 845
768 768 767 766 764 764 763 762 762 762 761 761 760 760 759 759 758 757 755 750 747 746 745 744 742 741 741 741 742 742 743 744 745 746 748 747 747 749 750 753 756 759 762 766 770 774 778 781 783 784 787 790 792 795 798 801 803 803 805 807 808 810 813 816 819 821 824 827 830 832 835 837 840 842
765 764 763 762 761 760 759 759 758 758 757 757 757 756 756 756 756 755 753 750 747 746 744 741 740 739 738 738 739 738 739 740 740 741 743 743 744 745 747 749 752 754 757 761 765 769 774 777 779 781 783 786 788 791 794 797 800 802 803 804 806 808 811 813 816 818 821 824 826 829 832 835 837 840
761 760 759 758 757 757 756 755 754 754 754 754 753 753 752 752 752 751 750 747 744 744 744 742 738 737 737 736 736 735 735 736 736 736 737 739 740 741 743 744 747 750 753 756 760 764 768 772 775 776 779 782 784 787 790 793 796 799 800 802 803 806 809 811 813 815 817 820 823 826 829 831 834 837
757 756 756 755 754 754 753 752 751 751 750 750 750 749 748 747 747 747 746 743 741 740 741 740 738 736 736 734 734 735 734 733 733 732 733 734 736 737 738 740 742 745 748 751 755 759 763 767 770 772 775 778 780 783 786 789 792 795 797 799 801 803 806 809 811 812 814 817 820 823 826 828 830 833
754 753 752 751 751 750 749 748 748 747 747 747 746 745 744 743 742 742 741 740 739 738 736 735 735 734 733 732 731 732 732 730 730 730 730 730 732 733 734 736 738 740 744 746 750 754 758 762 765 768 771 774 776 779 782 785 788 790 793 795 798 801 803 806 808 810 812 815 817 819 822 825 827 830
750 749 749 748 747 746 745 744 744 743 743 742 742 740 740 739 738 738 737 736 736 735 732 730 730 730 730 729 728 728 729 728 727 728 728 728 729 730 731 732 734 736 740 743 746 750 754 758 761 764 766 769 772 775 777 780 783 786 789 792 794 797 800 802 805 808 811 813 815 817 819 821 824 826
747 746 745 744 744 743 741 740 739 738 737 737 737 736 735 734 733 733 733 732 732 731 728 726 726 726 726 727 726 726 726 726 725 725 726 727 727 728 729 730 731 733 736 739 742 746 749 752 756 759 762 765 768 772 774 777 779 783 785 788 790 793 796 799 802 805 808 810 812 814 816 818 820 823
745 743 743 741 741 740 738 736 735 734 733 732 732 731 729 729 729 729 728 728 728 727 724 722 722 723 724 724 723 723 723 723 722 723 724 725 726 727 727 728 729 730 733 736 739 742 745 748 752 755 758 761 764 768 771 774 776 779 782 784 787 789 792 795 798 801 804 807 809 811 813 815 817 819
742 741 740 738 737 736 735 733 732 730 729 729 727 726 725 725 726 724 724 724 723 722 721 720 719 719 721 722 721 721 721 721 721 721 723 724 725 725 726 726 727 728 730 733 735 738 741 745 748 751 755 757 760 763 768 771 773 775 778 781 784 786 789 792 795 798 800 803 805 808 810 812 814 816
738 737 736 734 733 732 731 730 728 727 726 725 723 723 722 722 722 721 720 719 718 717 716 716 716 717 719 720 720 719 719 719 719 720 721 722 723 724 724 724 725 726 728 730 733 735 738 741 745 748 752 755 757 760 764 768 770 772 774 777 780 783 786 788 791 794 797 799 802 804 807 809 811 813
734 733 732 730 729 728 727 725 724 723 723 722 721 720 720 719 719 718 717 715 714 713 713 713 714 716 718 718 718 717 717 717 718 718 718 719 721 722 723 723 723 724 726 728 731 733 735 738 742 745 748 751 754 757 760 764 767 769 771 774 776 780 783 786 788 790 793 795 798 800 803 805 808 810
730 728 727 726 724 723 722 721 720 720 719 719 718 717 717 717 716 715 714 712 710 710 710 710 712 714 716 715 715 714 714 714 716 716 716 717 719 721 722 722 722 723 724 727 729 731 732 735 738 741 745 748 751 753 757 760 763 765 768 771 773 776 780 783 786 788 790 792 794 797 799 801 804 807
725 724 722 721 719 717 716 716 716 715 715 715 715 715 715 715 714 713 712 710 709 708 708 709 710 711 712 712 711 711 711 713 715 715 715 716 718 720 721 722 722 722 723 725 727 729 731 733 735 738 740 744 747 750 753 756 760 762 765 768 770 773 777 780 783 785 787 789 791 793 796 798 801 804
721 719 718 716 714 712 711 711 711 711 712 712 712 712 712 712 712 712 711 709 709 708 708 708 708 708 709 709 709 709 710 712 714 714 714 715 717 718 719 720 721 721 722 723 725 728 731 732 734 736 738 741 744 747 750 753 756 759 762 765 768 771 774 777 780 783 784 786 788 790 792 795 798 800
717 715 713 712 710 708 706 707 707 708 708 709 709 709 709 710 710 709 709 709 708 708 708 707 707 706 706 707 707 708 709 712 713 713 712 713 714 716 718 718 719 720 721 722 724 727 729 731 734 736 737 739 741 744 747 750 753 756 759 762 765 768 771 774 777 780 782 784 785 787 789 792 795 797
714 712 711 709 707 705 703 704 704 705 705 706 706 707 707 707 707 707 707 707 707 707 707 706 706 706 706 706 707 707 708 710 712 712 712 712 713 715 716 717 717 718 720 721 723 726 728 730 732 735 736 738 740 743 745 748 751 754 757 760 763 766 768 771 774 776 778 781 783 784 786 789 792 794
712 710 709 707 705 703 702 702 702 703 703 703 704 704 704 704 704 704 704 705 705 705 706 706 705 706 706 707 707 707 708 709 710 711 711 712 712 714 715 716 717 718 719 720 722 725 727 729 731 734 735 737 739 741 744 747 750 752 755 757 760 763 766 768 770 773 775 777 779 781 783 786 789 792
710 708 707 706 704 703 702 701 701 701 701 701 701 702 702 702 702 702 702 702 703 703 704 704 705 705 706 707 707 707 707 708 710 711 711 711 712 713 715 716 717 718 719 721 722 724 726 728 730 732 734 736 738 740 742 745 747 750 753 755 757 760 762 765 767 769 772 774 776 778 781 783 786 789
707 706 705 704 702 701 701 700 700 700 699 699 699 699 700 700 700 700 700 700 701 701 702 703 703 705 706 706 707 708 708 708 709 710 711 711 712 713 714 716 717 717 719 720 722 724 726 727 729 732 734 735 737 739 741 743 745 748 750 752 755 757 759 761 764 766 769 772 774 776 778 780 782 785
704 703 702 701 700 700 699 699 698 698 698 698 697 697 697 698 698 698 698 698 699 699 700 701 702 703 704 705 706 707 708 708 709 709 710 711 712 712 714 715 716 717 718 719 722 724 725 727 729 732 733 735 737 739 740 741 744 746 749 751 753 755 757 759 761 764 767 770 772 774 775 777 779 782
701 700 699 699 698 698 697 697 697 697 697 696 696 695 695 695 695 696 696 696 696 697 698 699 700 701 702 703 704 705 706 707 708 708 709 710 711 712 712 714 715 717 718 719 721 723 725 726 729 731 733 735 737 738 740 741 743 745 747 750 751 753 755 757 759 762 765 767 769 771 772 774 776 779
697 696 696 696 695 695 695 694 694 695 695 695 694 694 694 694 693 694 694 694 695 695 696 696 697 699 700 701 703 704 705 706 707 707 708 710 710 711 711 713 714 716 717 718 720 722 724 726 728 730 732 735 737 739 740 740 742 743 746 748 750 752 754 756 757 760 762 764 766 768 770 771 774 777
694 693 693 692 692 692 692 691 692 692 692 692 692 692 692 692 692 692 693 693 693 694 694 694 695 696 698 699 700 702 703 704 705 706 708 709 710 711 711 712 713 714 716 717 720 722 723 725 728 729 731 734 736 738 740 741 742 743 745 747 749 751 753 755 756 758 760 762 764 766 768 770 771 773
691 691 690 689 689 689 689 689 689 689 689 689 689 689 689 689 690 691 691 691 692 692 692 693 693 694 695 697 698 699 701 702 703 705 707 708 709 710 711 712 713 714 716 717 719 721 723 724 727 729 731 733 734 737 740 742 742 743 745 746 748 750 752 754 755 757 759 761 763 764 766 768 769 771
690 689 688 687 687 686 686 686 685 685 685 686 686 686 686 686 688 689 689 690 690 690 691 691 691 692 693 694 696 697 698 700 701 703 705 706 708 709 711 712 713 714 716 717 718 720 722 724 726 728 731 732 733 736 739 741 743 743 745 747 748 750 751 753 754 756 757 759 761 763 764 766 768 769
689 688 687 686 685 685 684 683 683 683 682 682 682 682 683 683 685 686 687 688 688 689 689 689 690 690 691 692 693 695 696 698 699 701 703 705 707 708 710 711 712 714 716 717 718 720 722 723 725 727 729 731 733 735 737 740 741 742 744 746 748 749 751 752 753 755 756 758 759 761 763 764 766 768
687 686 685 684 683 682 682 681 681 680 679 679 679 679 679 680 681 683 684 685 686 687 687 688 688 689 689 690 692 693 694 696 698 699 701 703 705 707 709 710 711 713 716 717 718 720 722 723 725 727 729 731 732 734 736 738 739 741 743 745 747 748 750 751 752 754 755 756 758 759 761 763 764 766
686 685 683 682 680 679 679 678 678 677 676 676 676 676 677 677 678 679 680 682 683 684 685 686 687 688 688 689 690 692 693 695 696 698 699 701 703 706 708 710 712 714 716 717 719 721 722 723 725 727 729 730 731 732 734 736 738 740 742 744 745 747 748 750 751 753 754 755 757 758 760 761 763 764
684 683 681 680 678 677 676 675 675 674 673 673 673 673 674 674 675 676 677 679 680 681 682 684 685 686 687 688 689 691 692 693 694 695 697 700 702 705 707 709 711 713 715 717 719 720 722 723 724 726 728 729 730 731 733 734 737 739 741 742 744 746 747 749 750 752 753 755 756 757 758 759 761 763
682 681 679 678 677 675 674 674 673 673 672 672 672 672 672 672 672 673 674 676 677 679 680 681 683 684 685 687 688 689 691 692 692 694 696 699 701 704 706 708 710 712 714 716 718 719 721 722 723 725 727 728 729 731 732 734 736 738 740 742 743 744 745 747 749 751 752 754 755 756 757 758 759 760
682 680 679 677 676 675 674 673 673 673 672 671 671 671 670 669 669 670 672 673 675 677 678 680 681 682 684 685 686 688 689 691 692 694 696 699 701 703 706 708 710 711 713 715 716 718 720 721 722 724 726 727 729 730 732 734 736 738 739 741 743 744 744 746 747 749 751 753 754 755 755 756 757 758
682 681 680 678 677 676 675 674 674 673 672 671 671 670 669 667 667 668 670 672 673 675 677 678 680 681 682 684 685 687 689 690 692 694 696 698 700 703 705 707 708 710 711 713 715 716 718 720 721 723 725 726 728 730 732 734 736 738 739 740 742 743 744 745 746 747 749 751 752 753 754 754 755 756
684 682 681 680 679 678 677 676 675 674 673 672 671 670 669 667 667 668 669 671 672 674 675 677 678 680 682 683 685 686 688 690 692 694 696 698 700 702 704 705 707 708 710 712 713 715 717 719 720 722 724 726 727 729 730 733 735 737 738 739 740 742 743 744 745 746 748 749 750 751 751 752 752 753
686 685 684 683 682 681 680 678 677 676 674 673 672 671 670 668 668 668 669 670 671 673 675 676 678 680 681 682 684 686 688 690 692 694 696 697 699 701 702 704 706 707 709 710 712 714 716 717 719 722 724 726 727 728 729 731 733 735 737 738 739 740 741 742 743 745 746 747 748 748 749 749 750 750
688 687 687 686 685 683 682 680 679 677 676 675 673 672 671 670 670 670 670 670 672 673 675 677 678 680 681 683 685 686 688 689 691 694 695 697 698 700 702 703 705 707 708 709 711 712 715 717 719 721 723 726 727 728 728 729 731 733 734 735 736 738 739 740 741 742 743 744 745 745 746 746 746 747
691 690 689 688 687 686 685 683 681 679 678 676 675 674 674 673 673 673 672 673 674 675 676 678 679 680 682 683 685 686 688 689 691 693 695 697 698 700 701 703 705 706 708 709 710 711 714 716 718 720 722 724 726 727 726 727 728 730 731 733 733 735 736 737 738 738 739 740 741 742 742 743 744 744
694 693 692 691 690 689 687 686 684 682 680 679 678 677 677 676 675 675 675 675 675 676 677 679 680 681 682 683 685 686 688 690 691 693 695 697 698 700 701 702 704 706 707 709 710 711 713 715 717 719 720 722 723 724 724 725 726 726 728 730 731 732 733 734 734 735 736 737 737 738 739 739 740 741
696 695 694 693 692 691 690 688 687 685 684 683 681 681 680 679 678 678 677 677 677 678 679 680 681 682 683 684 685 687 688 690 692 693 695 696 698 699 701 702 703 705 706 708 709 711 712 714 715 717 719 720 721 721 722 723 723 724 725 727 728 729 730 731 731 732 733 733 734 735 736 736 737 737
699 698 697 696 695 694 692 691 690 689 687 686 685 684 683 682 681 681 680 680 680 680 681 682 682 683 684 685 686 688 689 690 692 693 695 696 697 699 700 701 702 704 706 707 709 710 711 712 714 715 717 718 719 720 721 722 722 722 723 724 725 726 727 727 728 729 730 730 732 732 733 733 733 733
701 700 699 698 697 696 694 693 692 691 690 689 688 687 686 685 684 684 683 683 683 683 683 684 684 685 686 687 688 689 690 691 692 694 695 696 697 699 700 701 702 704 705 707 708 709 710 711 713 714 716 717 718 719 720 720 720 720 720 721 723 724 724 725 726 726 727 728 729 729 729 730 730 730
703 702 701 700 699 698 696 695 694 693 692 691 690 689 689 688 687 687 686 686 686 685 686 686 687 687 688 688 689 690 691 692 693 694 695 697 698 699 700 701 703 704 705 707 708 708 709 710 711 713 714 715 716 718 718 718 718 718 719 719 720 721 722 722 723 724 725 725 726 726 727 728 728 727
704 703 702 701 700 699 698 697 696 694 694 693 692 691 691 690 689 689 688 688 688 688 688 689 689 689 690 690 691 692 693 693 694 695 696 697 698 699 700 702 703 704 705 706 707 708 709 710 710 712 712 713 715 716 716 716 717 717 718 718 718 718 720 720 721 721 722 722 723 723 723 724 724 722
705 704 703 702 701 700 699 698 697 696 695 694 693 693 692 692 691 691 690 690 690 690 690 691 691 691 691 692 692 693 694 694 695 696 696 698 699 700 701 702 703 704 705 706 707 707 708 709 710 711 712 712 714 715 715 715 716 716 717 717 717 717 717 718 718 718 718 718 718 719 719 719 718 717
706 705 704 703 702 701 700 699 698 697 696 695 695 694 694 693 693 692 692 692 692 691 692 692 692 692 692 693 693 694 694 695 696 696 697 699 699 700 701 702 703 704 705 706 707 707 708 709 709 710 711 712 713 713 714 715 715 715 715 716 715 715 716 716 716 715 714 713 713 714 714 714 713 713